{"data":{"norad_id":50205,"epoch":"2026-05-24T13:57:37.274688Z","epoch_age_seconds":111934,"freshness":"FRESH","line1":"1 50205U 21125BB  26144.58168142  .00000429  00000+0  45051-4 0  9998","line2":"2 50205  53.2151 228.4255 0001027  90.0791 270.0319 15.08837724248613","mean_motion":15.08837724,"eccentricity":0.0001027,"inclination_deg":53.2151,"raan_deg":228.4255,"arg_perigee_deg":90.0791,"mean_anomaly_deg":270.0319,"bstar":4.5051e-5,"rev_number":24861,"period_min":95.437698640149,"perigee_km":539.03987876391,"apogee_km":540.46081282473,"semimajor_km":6917.8873457943,"source":"CELESTRAK","updated_at":"2026-05-25T13:38:16.873905Z"}}